Tracking 28920 objects as of 27-May-2024
HD Live streaming from Space Station
objects crossing your sky now

STARLINK-31404

Track STARLINK-31404 now!
10-day predictions


NORAD ID: 59521
Int'l Code: 2024-073L
Perigee: 449.6 km
Apogee: 452.7 km
Inclination: 43.0 °
Period: 93.5 minutes
Semi major axis: 6822 km
RCS: Unknown
Launch date: April 17, 2024
Source: United States (US)
Launch site: AIR FORCE EASTERN TEST RANGE (AFETR)
Your satellite tracking list
Your tracking list is empty




NASA's NSSDC Master Catalog

Two Line Element Set (TLE):
1 59521U 24073L   24147.87505372  .00009478  00000-0  23374-3 0  9993
2 59521  43.0016  72.4692 0002303 293.9803  66.0812 15.40717259  7326
Source of the keplerian elements: AFSPC